Location: *
(37.4917°N, 71.5558°E)
Time: 02:03:41
(UTC+00:00)

H-2A R/B - Pass Details

Date: 09 April 2020
Orbit: 734 x 836 km, 98.2° (Epoch: 05 June)

Event Time Altitude Azimuth Distance (km) Brightness Sun altitude
Exits shadow 14:51:59 - 168° (SSE) 3,335 5.0 -13.8°
Rises 14:52:04 0° 168° (SSE) 3,301 5.0 -13.8°
Reaches altitude 10° 14:54:25 10° 169° (S) 2,360 4.2 -14.2°
Maximum altitude 14:59:38 82° 257° (WSW) 793 2.1 -15.2°
Drops below altitude 10° 15:04:44 10° 345° (NNW) 2,309 5.0 -16.1°
Sets 15:07:01 0° 347° (NNW) 3,224 5.8 -16.5°
